GW2522 Weather Reports


time (UTC)temp
C
wind
direction
speed
KPH
gust
KPH
rain 1hr
cm
rain 24hr
cm
rain mn
cm
humidity
%
barometer
mb
20260504205346 24 258 0.0 0.0 0.00 0.03 0.03 99 1004.9
20260504204844 24 259 0.0 1.6 0.00 0.03 0.03 99 1005.2
20260504204343 24 263 0.0 0.0 0.00 0.03 0.03 99 1005.2
20260504203842 24 265 0.0 1.6 0.00 0.03 0.03 99 1004.9
20260504203338 24 339 0.0 1.6 0.00 0.03 0.03 99 1005.0
20260504202834 24 252 0.0 1.6 0.00 0.03 0.03 99 1004.9
20260504202331 24 264 0.0 1.6 0.00 0.03 0.03 99 1005.1
20260504201828 24 286 0.0 1.6 0.00 0.03 0.03 99 1005.1
20260504201326 24 253 0.0 1.6 0.00 0.03 0.03 99 1005.1
20260504200823 24 247 0.0 0.0 0.00 0.03 0.03 99 1005.1
20260504200319 24 281 1.6 1.6 0.00 0.03 0.03 99 1005.2
20260504195815 24 255 1.6 1.6 0.00 0.03 0.03 99 1005.1
20260504195311 24 252 0.0 0.0 0.00 0.03 0.03 99 1005.2
20260504194808 24 245 0.0 0.0 0.00 0.03 0.03 99 1005.1
20260504194304 24 245 0.0 0.0 0.00 0.03 0.03 99 1005.2
20260504193800 24 241 0.0 0.0 0.00 0.03 0.03 99 1005.1
20260504193258 24 241 0.0 0.0 0.00 0.03 0.03 99 1005.3
20260504192756 24 252 0.0 1.6 0.00 0.03 0.03 99 1005.3
20260504192254 24 250 0.0 1.6 0.00 0.03 0.03 99 1005.4
20260504191753 24 248 0.0 0.0 0.00 0.03 0.03 99 1005.4
20260504191249 24 246 0.0 0.0 0.00 0.03 0.03 99 1005.4
20260504190745 24 250 0.0 1.6 0.00 0.03 0.03 99 1005.5
20260504190241 24 247 0.0 0.0 0.00 0.03 0.03 99 1005.8
20260504185738 24 253 0.0 1.6 0.00 0.03 0.03 99 1005.7
20260504185235 24 252 0.0 0.0 0.00 0.03 0.03 99 1005.6
20260504184731 24 248 0.0 0.0 0.00 0.03 0.03 99 1005.7
20260504184227 24 257 0.0 1.6 0.00 0.03 0.03 99 1005.7
20260504183723 24 241 0.0 0.0 0.00 0.03 0.03 99 1005.9
20260504183220 24 245 0.0 0.0 0.00 0.03 0.03 99 1005.9
20260504182718 24 249 0.0 0.0 0.00 0.03 0.03 99 1005.9
20260504182215 24 248 0.0 1.6 0.00 0.03 0.03 99 1005.8
20260504181713 24 249 0.0 0.0 0.00 0.03 0.03 99 1006.1
20260504181210 25 248 0.0 0.0 0.00 0.03 0.03 99 1006.2
20260504180709 24 238 0.0 0.0 0.00 0.03 0.03 99 1006.1
20260504180207 24 246 0.0 1.6 0.00 0.03 0.03 99 1006.3
20260504175704 24 245 0.0 0.0 0.00 0.03 0.03 99 1006.4
20260504175201 24 248 0.0 0.0 0.00 0.03 0.03 99 1006.3
20260504174659 25 241 0.0 0.0 0.00 0.03 0.03 99 1006.4
20260504174156 25 241 0.0 0.0 0.00 0.03 0.03 99 1006.3
20260504173652 25 243 0.0 0.0 0.00 0.03 0.03 99 1006.7
20260504173150 25 248 0.0 0.0 0.18 0.03 0.03 99 1006.6
20260504172646 25 241 0.0 0.0 0.18 0.03 0.03 99 1006.7
20260504172143 25 241 0.0 0.0 0.00 0.00 0.00 99 1006.9
20260504171639 25 252 0.0 0.0 0.00 0.00 0.00 99 1007.0
20260504171137 25 248 0.0 0.0 0.00 0.00 0.00 99 1006.9
20260504170633 25 252 0.0 1.6 0.00 0.00 0.00 99 1007.0
20260504170131 25 248 0.0 1.6 0.00 0.00 0.00 99 1006.9
20260504151016 25 292 1.6 3.2 0.00 0.38 0.38 99 1007.1
20260504150514 25 261 0.0 0.0 0.00 0.38 0.38 99 1006.9
20260504140939 25 255 0.0 0.0 0.00 0.38 0.38 99 1006.0
20260504140436 25 249 0.0 0.0 0.00 0.38 0.38 99 1005.8
20260504130400 25 236 0.0 0.0 0.00 0.38 0.38 99 1005.7
20260504110248 27 268 0.0 0.0 0.00 0.03 0.03 93 1005.0
20260504100211 33 252 0.0 1.6 0.00 0.03 0.03 74 1002.6
20260504090134 34 286 1.6 1.6 0.00 0.03 0.03 73 1002.6
20260504081604 33 239 1.6 4.8 0.00 0.03 0.03 75 1002.7
20260504081100 32 302 1.6 4.8 0.00 0.03 0.03 75 1002.9
20260504080557 32 329 4.8 4.8 0.00 0.03 0.03 74 1002.9
20260504050409 31 287 0.0 3.2 0.00 0.03 0.03 81 1006.7
20260504045906 31 249 0.0 3.2 0.00 0.03 0.03 82 1006.6
20260504045402 31 104 4.8 8.0 0.00 0.03 0.03 81 1006.7
20260504044859 32 157 3.2 8.0 0.00 0.03 0.03 81 1006.9
20260504044356 31 231 0.0 3.2 0.00 0.03 0.03 82 1007.0
20260504043854 31 284 0.0 4.8 0.00 0.03 0.03 83 1007.2
20260504043350 31 335 1.6 4.8 0.00 0.03 0.03 82 1007.4
20260504042848 31 312 1.6 3.2 0.00 0.03 0.03 82 1007.3
20260504042344 31 30 1.6 3.2 0.00 0.03 0.03 83 1007.5
20260504041840 31 294 1.6 3.2 0.00 0.03 0.03 83 1007.5
20260504041337 31 277 1.6 3.2 0.00 0.03 0.03 83 1007.4
20260504040833 31 258 3.2 4.8 0.00 0.03 0.03 83 1007.6
20260504040331 31 78 1.6 3.2 0.00 0.03 0.03 83 1007.7
20260504035826 30 150 3.2 3.2 0.00 0.03 0.03 84 1007.5
20260504035324 30 22 3.2 4.8 0.00 0.03 0.03 84 1007.5
20260504034821 30 329 1.6 3.2 0.00 0.03 0.03 85 1007.5
20260504034318 30 297 1.6 3.2 0.00 0.03 0.03 86 1007.6
20260504033815 30 346 4.8 4.8 0.00 0.03 0.03 87 1007.4
20260504033313 30 356 3.2 4.8 0.00 0.03 0.03 86 1007.5
20260504032809 30 26 3.2 4.8 0.00 0.03 0.03 87 1007.8
20260504032307 30 267 1.6 3.2 0.00 0.03 0.03 88 1007.8
20260504031803 30 60 3.2 3.2 0.00 0.03 0.03 87 1008.1
20260504031301 30 275 3.2 3.2 0.00 0.03 0.03 87 1007.8
20260504030757 30 303 1.6 4.8 0.00 0.03 0.03 86 1007.8
20260504030254 30 217 1.6 3.2 0.00 0.03 0.03 87 1007.7
20260504025750 29 250 0.0 1.6 0.00 0.03 0.03 88 1007.8
20260504025247 28 193 0.0 1.6 0.00 0.03 0.03 89 1007.7
20260504024744 28 333 0.0 3.2 0.00 0.03 0.03 91 1007.6
20260504024241 28 312 0.0 3.2 0.00 0.03 0.03 92 1007.9
20260504023738 27 350 1.6 3.2 0.00 0.03 0.03 93 1007.9
20260504023234 27 80 1.6 3.2 0.00 0.03 0.03 96 1007.9
20260504022730 27 21 3.2 4.8 0.00 0.03 0.03 96 1008.0
20260504022226 26 288 1.6 3.2 0.00 0.03 0.03 97 1008.2
20260504021724 26 256 1.6 4.8 0.00 0.03 0.03 98 1008.2
20260504021221 26 287 3.2 4.8 0.00 0.03 0.03 98 1008.2
20260504020717 26 323 4.8 8.0 0.00 0.03 0.03 99 1008.1
20260504020214 26 18 1.6 3.2 0.00 0.03 0.03 99 1008.2
20260504015710 26 354 3.2 4.8 0.00 0.03 0.03 99 1008.2
20260504015207 26 243 0.0 1.6 0.00 0.03 0.03 99 1008.2
20260504014702 26 251 0.0 1.6 0.00 0.03 0.03 99 1008.3
20260504014159 25 294 1.6 3.2 0.00 0.03 0.03 99 1008.1
20260504013657 26 230 1.6 4.8 0.00 0.03 0.03 99 1007.9
20260504013154 25 264 1.6 3.2 0.00 0.03 0.03 99 1007.8
20260504012651 25 297 1.6 1.6 0.00 0.03 0.03 99 1008.1
20260504012149 25 257 1.6 1.6 0.00 0.03 0.03 99 1007.9
20260504011646 25 263 0.0 1.6 0.00 0.03 0.03 99 1007.8
20260504011142 25 0 1.6 3.2 0.00 0.03 0.03 99 1007.8
20260504010638 25 277 1.6 3.2 0.00 0.03 0.03 99 1007.6
20260504010134 25 284 0.0 4.8 0.00 0.03 0.03 99 1007.5
20260504005631 25 284 1.6 3.2 0.00 0.03 0.03 99 1007.6
20260504005128 25 290 4.8 4.8 0.00 0.03 0.03 99 1007.4
20260504004626 25 255 3.2 4.8 0.00 0.03 0.03 99 1007.3
20260504004123 25 264 1.6 3.2 0.00 0.03 0.03 99 1007.2
20260504003619 25 292 3.2 4.8 0.00 0.03 0.03 99 1007.1
20260504003116 24 251 0.0 4.8 0.00 0.03 0.03 99 1007.0
20260504002613 24 292 3.2 8.0 0.00 0.03 0.03 99 1007.0
20260504002110 24 269 1.6 3.2 0.00 0.03 0.03 99 1006.9
20260504001608 25 295 3.2 4.8 0.00 0.03 0.03 99 1006.7
20260504001103 24 250 0.0 1.6 0.00 0.03 0.03 99 1006.7
20260504000601 24 249 0.0 1.6 0.00 0.03 0.03 99 1006.8
20260504000058 24 249 0.0 0.0 0.00 0.03 0.03 99 1006.8
20260503235556 23 232 0.0 0.0 0.00 0.03 0.03 99 1006.7
20260503235053 23 233 0.0 1.6 0.00 0.03 0.03 99 1006.6
20260503234551 23 250 0.0 0.0 0.00 0.03 0.03 99 1006.5
20260503234049 23 261 0.0 0.0 0.00 0.03 0.03 99 1006.3
20260503233545 23 247 0.0 0.0 0.00 0.03 0.03 99 1006.3
20260503233041 23 243 0.0 0.0 0.00 0.03 0.03 99 1006.2
20260503232538 23 246 0.0 0.0 0.00 0.03 0.03 99 1006.2
20260503232036 23 244 0.0 0.0 0.00 0.03 0.03 99 1006.2
20260503231533 23 240 0.0 0.0 0.00 0.03 0.03 99 1006.3
20260503231030 23 235 0.0 0.0 0.00 0.03 0.03 99 1006.3
20260503230526 23 244 0.0 0.0 0.00 0.03 0.03 99 1006.2
20260503230024 23 246 0.0 1.6 0.00 0.03 0.03 99 1006.2
20260503225521 23 249 0.0 0.0 0.00 0.03 0.03 99 1006.2
20260503225016 23 251 0.0 1.6 0.00 0.03 0.03 99 1006.0
20260503224514 23 240 0.0 0.0 0.00 0.03 0.03 99 1005.8
20260503224011 23 247 0.0 1.6 0.00 0.03 0.03 99 1005.9
20260503223509 23 248 0.0 0.0 0.00 0.03 0.03 99 1005.8
20260503223004 23 248 0.0 1.6 0.00 0.03 0.03 99 1005.5
20260503222503 23 247 0.0 0.0 0.00 0.03 0.03 99 1005.5
20260503222000 23 251 0.0 1.6 0.00 0.03 0.03 99 1005.2
20260503221458 23 245 0.0 0.0 0.00 0.03 0.03 99 1005.3
20260503220950 23 239 0.0 0.0 0.00 0.03 0.03 99 1005.4
20260503220446 23 244 0.0 1.6 0.00 0.03 0.03 99 1005.4
20260503215943 23 249 0.0 0.0 0.00 0.03 0.03 99 1005.3
20260503215439 23 240 0.0 0.0 0.00 0.03 0.03 99 1005.2
20260503214937 23 244 0.0 0.0 0.00 0.03 0.03 99 1005.5
20260503214435 23 247 0.0 0.0 0.00 0.03 0.03 99 1005.3
20260503213932 23 248 0.0 0.0 0.00 0.03 0.03 99 1005.3
20260503213430 23 239 0.0 0.0 0.00 0.03 0.03 99 1005.1
20260503212926 23 244 0.0 0.0 0.00 0.03 0.03 99 1005.3
20260503212424 23 257 0.0 0.0 0.00 0.03 0.03 99 1005.1
20260503211921 23 246 0.0 0.0 0.00 0.03 0.03 99 1005.1
20260503211418 23 241 0.0 0.0 0.00 0.03 0.03 99 1004.9
20260503210913 23 245 0.0 0.0 0.00 0.03 0.03 99 1004.9
20260503210410 23 242 0.0 0.0 0.00 0.03 0.03 99 1005.1
20260503205905 23 242 0.0 0.0 0.00 0.03 0.03 99 1004.7